Flag for Italy Weather past 2 weeks in Palermo, Italy

79 °F


Feels Like: 80 °F
Forecast: 72 / 78 °F
Wind: 16 mph from Southwest

Location: Palermo / Punta Raisi

Current Time: Oct 7, 2015 at 12:55:29 AM

Latest Report: Oct 6, 2015 at 11:50 PM

Visibility: 10 mi

Pressure: 29.92 "Hg

Humidity: 54%

Dew point: 61 °F

Location of PalermoLocation

Historic Weather in Palermo — Graph


Palermo temperature yesterday

Maximum temperature yesterday: 86 °F (at 12:50 PM)
Minimum temperature yesterday: 70 °F (at 12:50 AM)
Average temperature yesterday: 79 °F

Past Weeks' High & Low Weather Summary

High86 °F (Oct 6, 12:50 PM)88% (Sep 24, 5:50 AM)30.24 "Hg (Sep 24, 5:50 AM)
Low64 °F (Sep 27, 7:20 AM)32% (Sep 23, 11:50 PM)29.83 "Hg (Sep 23, 4:50 AM)
Average73 °F68%30.02 "Hg
* Reported Sep 21 11:20 PM — Oct 6 11:20 PM, Palermo, Weather by CustomWeather, © 2015

Note: Actual official high and low records may vary slightly from our data, if they occured in-between our weather recording intervals... More about our weather records


Palermo weather history for previous 24 hours

Time TempWeatherWind HumidityBarometerVisibility
11:20 PM
Tue, Oct 6
81 °FClear.15 mph48%29.92 "Hg10 mi
10:50 PM81 °FClear.15 mph48%29.92 "Hg10 mi
10:20 PM81 °FClear.15 mph48%29.92 "Hg10 mi
9:50 PM82 °FClear.15 mph45%29.92 "Hg10 mi
9:20 PM82 °FClear.16 mph45%29.92 "Hg10 mi
8:50 PM82 °FClear.15 mph45%29.92 "Hg10 mi
8:20 PM82 °FClear.14 mph45%29.92 "Hg10 mi
7:50 PM84 °FClear.13 mph45%29.92 "Hg10 mi
7:20 PM82 °FSunny.14 mph51%29.89 "Hg10 mi
6:50 PM82 °FSunny.10 mph55%29.89 "Hg10 mi
6:20 PM82 °FSunny.12 mph55%29.89 "Hg10 mi
5:50 PM84 °FSunny.15 mph51%29.89 "Hg10 mi
5:20 PM86 °FSunny.10 mph46%29.89 "Hg10 mi
4:50 PM86 °FSunny.10 mph46%29.89 "Hg10 mi
4:20 PM86 °FSunny.10 mph49%29.92 "Hg10 mi
3:50 PM86 °FSunny.13 mph46%29.92 "Hg10 mi
3:20 PM86 °FPassing clouds.13 mph49%29.92 "HgN/A
2:50 PM84 °FSunny.14 mph55%29.95 "Hg10 mi
2:20 PM86 °FSunny.14 mph49%29.95 "Hg10 mi
1:50 PM86 °FSunny.15 mph49%29.95 "Hg10 mi
1:20 PM86 °FSunny.14 mph46%29.95 "Hg10 mi
12:50 PM86 °FSunny.12 mph40%29.98 "Hg10 mi
12:20 PM84 °FSunny.14 mph45%29.98 "Hg10 mi
11:50 AM82 °FSunny.16 mph51%29.98 "Hg10 mi
11:20 AM79 °FSunny.13 mph65%29.98 "Hg10 mi
10:50 AM77 °FSunny.14 mph69%29.98 "Hg10 mi
10:20 AM81 °FSunny.9 mph54%29.98 "Hg10 mi
9:50 AM75 °FSunny.1 mph69%29.98 "Hg10 mi
9:20 AM75 °FSunny.1 mph65%29.98 "Hg10 mi
8:50 AM73 °FSunny.2 mph74%29.98 "Hg10 mi
8:20 AM72 °FSunny.3 mph73%29.98 "Hg10 mi
7:50 AM70 °FPassing clouds.3 mph73%29.98 "HgN/A
7:20 AM70 °FClear.1 mph69%29.98 "Hg10 mi
6:50 AM72 °FClear.1 mph69%29.98 "Hg10 mi
6:20 AM73 °FClear.2 mph65%29.98 "Hg10 mi
5:50 AM73 °FClear.1 mph69%29.98 "Hg10 mi
5:20 AM72 °FClear.10 mph69%29.98 "Hg10 mi
4:50 AM73 °FClear.14 mph69%29.98 "Hg10 mi
4:20 AM73 °FClear.8 mph61%29.98 "Hg10 mi
3:50 AM73 °FClear.10 mph57%29.98 "Hg10 mi
3:20 AM73 °FClear.10 mph65%29.98 "Hg10 mi
2:50 AM73 °FClear.10 mph69%30.01 "Hg10 mi
2:20 AM72 °FClear.10 mph73%30.01 "Hg10 mi
1:50 AM70 °FClear.6 mph69%30.01 "Hg10 mi
1:20 AM72 °FClear.5 mph61%30.01 "Hg10 mi
12:50 AM70 °FClear.7 mph64%30.04 "Hg10 mi
12:20 AM72 °FClear.5 mph61%30.04 "Hg10 mi
Weather by CustomWeather, © 2015

See weather overviewHow to use our weather pages